date,time,SUV Intensity [MED/Hr],UV Index,Daily total [MED],Since Last [MED]
21/07/2022,00:10:56,0.001,0.0,0.0,0.0
21/07/2022,00:12:41,0.000,0.0,0.0,0.0
21/07/2022,00:13:40,0.000,0.0,0.0,0.0
21/07/2022,00:14:40,0.000,0.0,0.0,0.0
21/07/2022,00:15:41,0.000,0.0,0.0,0.0
21/07/2022,00:16:40,0.000,0.0,0.0,0.0
21/07/2022,00:17:40,0.000,0.0,0.0,0.0
21/07/2022,00:18:40,0.000,0.0,0.0,0.0
21/07/2022,00:19:41,0.000,0.0,0.0,0.0
21/07/2022,00:20:40,0.001,0.0,0.0,0.0
21/07/2022,00:21:40,0.000,0.0,0.0,0.0
21/07/2022,00:22:41,0.001,0.0,0.0,0.0
21/07/2022,00:23:41,0.000,0.0,0.0,0.0
21/07/2022,00:24:40,0.000,0.0,0.0,0.0
21/07/2022,00:25:41,0.000,0.0,0.0,0.0
21/07/2022,00:26:41,0.000,0.0,0.0,0.0
21/07/2022,00:27:41,0.000,0.0,0.0,0.0
21/07/2022,00:28:41,0.000,0.0,0.0,0.0
21/07/2022,00:29:40,0.000,0.0,0.0,0.0
21/07/2022,00:30:41,0.000,0.0,0.0,0.0
21/07/2022,00:31:41,0.000,0.0,0.0,0.0
21/07/2022,00:32:40,0.000,0.0,0.0,0.0
21/07/2022,00:33:41,0.000,0.0,0.0,0.0
21/07/2022,00:34:40,0.001,0.0,0.0,0.0
21/07/2022,00:35:40,0.000,0.0,0.0,0.0
21/07/2022,00:36:41,0.000,0.0,0.0,0.0
21/07/2022,00:37:41,0.000,0.0,0.0,0.0
21/07/2022,00:38:40,0.000,0.0,0.0,0.0
21/07/2022,00:39:49,-0.001,0.0,0.0,0.0
21/07/2022,00:40:40,0.000,0.0,0.0,0.0
21/07/2022,00:41:40,0.000,0.0,0.0,0.0
21/07/2022,00:42:49,0.000,0.0,0.0,0.0
21/07/2022,00:43:40,0.000,0.0,0.0,0.0
21/07/2022,00:44:49,0.001,0.0,0.0,0.0
21/07/2022,00:45:40,0.001,0.0,0.0,0.0
21/07/2022,00:46:40,0.001,0.0,0.0,0.0
21/07/2022,00:47:49,0.001,0.0,0.0,0.0
21/07/2022,00:48:40,0.001,0.0,0.0,0.0
21/07/2022,00:49:40,0.001,0.0,0.0,0.0
21/07/2022,00:50:49,0.001,0.0,0.0,0.0
21/07/2022,00:51:40,0.000,0.0,0.0,0.0
21/07/2022,00:52:41,0.001,0.0,0.0,0.0
21/07/2022,00:53:49,0.001,0.0,0.0,0.0
21/07/2022,00:54:40,0.001,0.0,0.0,0.0
21/07/2022,00:55:40,0.001,0.0,0.0,0.0
21/07/2022,00:56:41,0.000,0.0,0.0,0.0
21/07/2022,00:57:40,0.001,0.0,0.0,0.0
21/07/2022,00:58:40,0.001,0.0,0.0,0.0
21/07/2022,00:59:40,0.001,0.0,0.0,0.0
21/07/2022,01:00:41,0.001,0.0,0.0,0.0
21/07/2022,01:01:40,0.001,0.0,0.0,0.0
21/07/2022,01:02:41,0.001,0.0,0.0,0.0
21/07/2022,01:03:41,0.001,0.0,0.0,0.0
21/07/2022,01:04:40,0.001,0.0,0.0,0.0
21/07/2022,01:05:40,0.001,0.0,0.0,0.0
21/07/2022,01:06:42,0.001,0.0,0.0,0.0
21/07/2022,01:07:41,0.001,0.0,0.0,0.0
21/07/2022,01:08:41,0.001,0.0,0.0,0.0
21/07/2022,01:09:40,0.001,0.0,0.0,0.0
21/07/2022,01:10:32,0.001,0.0,0.0,0.0
21/07/2022,01:11:41,0.001,0.0,0.0,0.0
21/07/2022,01:12:41,0.001,0.0,0.0,0.0
21/07/2022,01:13:41,0.001,0.0,0.0,0.0
21/07/2022,01:14:40,0.001,0.0,0.0,0.0
21/07/2022,01:15:40,0.001,0.0,0.0,0.0
21/07/2022,01:16:49,0.001,0.0,0.0,0.0
21/07/2022,01:17:40,0.001,0.0,0.0,0.0
21/07/2022,01:18:40,0.001,0.0,0.0,0.0
21/07/2022,01:19:41,0.001,0.0,0.0,0.0
21/07/2022,01:20:40,0.001,0.0,0.0,0.0
21/07/2022,01:21:41,0.002,0.0,0.0,0.0
21/07/2022,01:22:41,0.001,0.0,0.0,0.0
21/07/2022,01:23:40,0.001,0.0,0.0,0.0
21/07/2022,01:24:41,0.001,0.0,0.0,0.0
21/07/2022,01:25:41,0.001,0.0,0.0,0.0
21/07/2022,01:26:40,0.001,0.0,0.0,0.0
21/07/2022,01:27:49,0.001,0.0,0.0,0.0
21/07/2022,01:28:41,0.001,0.0,0.0,0.0
21/07/2022,01:29:40,0.001,0.0,0.0,0.0
21/07/2022,01:30:41,0.001,0.0,0.0,0.0
21/07/2022,01:31:40,0.002,0.0,0.0,0.0
21/07/2022,01:32:40,0.001,0.0,0.0,0.0
21/07/2022,01:33:41,0.002,0.0,0.0,0.0
21/07/2022,01:34:40,0.001,0.0,0.0,0.0
21/07/2022,01:35:42,0.001,0.0,0.0,0.0
21/07/2022,01:36:40,0.001,0.0,0.0,0.0
21/07/2022,01:37:41,0.001,0.0,0.0,0.0
21/07/2022,01:38:41,0.001,0.0,0.0,0.0
21/07/2022,01:39:40,0.001,0.0,0.0,0.0
21/07/2022,01:40:40,0.001,0.0,0.0,0.0
21/07/2022,01:41:41,0.001,0.0,0.0,0.0
21/07/2022,01:42:42,0.001,0.0,0.0,0.0
21/07/2022,01:43:41,0.001,0.0,0.0,0.0
21/07/2022,01:44:41,0.000,0.0,0.0,0.0
21/07/2022,01:45:41,0.001,0.0,0.0,0.0
21/07/2022,01:46:41,0.001,0.0,0.0,0.0
21/07/2022,01:47:41,0.001,0.0,0.0,0.0
21/07/2022,01:48:41,0.001,0.0,0.0,0.0
21/07/2022,01:49:40,0.001,0.0,0.0,0.0
21/07/2022,01:50:41,0.001,0.0,0.0,0.0
21/07/2022,01:51:40,0.001,0.0,0.0,0.0
21/07/2022,01:52:41,0.001,0.0,0.0,0.0
21/07/2022,01:53:49,0.001,0.0,0.0,0.0
21/07/2022,01:54:41,0.001,0.0,0.0,0.0
21/07/2022,01:55:41,0.001,0.0,0.0,0.0
21/07/2022,01:56:49,0.001,0.0,0.0,0.0
21/07/2022,01:57:42,0.001,0.0,0.0,0.0
21/07/2022,01:58:49,0.001,0.0,0.0,0.0
21/07/2022,01:59:41,0.001,0.0,0.0,0.0
21/07/2022,02:00:41,0.001,0.0,0.0,0.0
21/07/2022,02:01:40,0.001,0.0,0.0,0.0
21/07/2022,02:02:40,0.001,0.0,0.0,0.0
21/07/2022,02:03:41,0.001,0.0,0.0,0.0
21/07/2022,02:04:41,0.001,0.0,0.0,0.0
21/07/2022,02:05:42,0.002,0.0,0.0,0.0
21/07/2022,02:06:41,0.001,0.0,0.0,0.0
21/07/2022,02:07:41,0.001,0.0,0.0,0.0
21/07/2022,02:08:41,0.001,0.0,0.0,0.0
21/07/2022,02:09:41,0.001,0.0,0.0,0.0
21/07/2022,02:10:41,0.002,0.0,0.0,0.0
21/07/2022,02:11:41,0.001,0.0,0.0,0.0
21/07/2022,02:12:40,0.001,0.0,0.0,0.0
21/07/2022,02:13:41,0.002,0.0,0.0,0.0
21/07/2022,02:14:41,0.002,0.0,0.0,0.0
21/07/2022,02:15:41,0.001,0.0,0.0,0.0
21/07/2022,02:16:41,0.001,0.0,0.0,0.0
21/07/2022,02:17:41,0.001,0.0,0.0,0.0
21/07/2022,02:18:41,0.001,0.0,0.0,0.0
21/07/2022,02:19:41,0.001,0.0,0.0,0.0
21/07/2022,02:20:41,0.001,0.0,0.0,0.0
21/07/2022,02:21:41,0.002,0.0,0.0,0.0
21/07/2022,02:22:41,0.001,0.0,0.0,0.0
21/07/2022,02:23:41,0.001,0.0,0.0,0.0
21/07/2022,02:24:41,0.002,0.0,0.0,0.0
21/07/2022,02:25:40,0.001,0.0,0.0,0.0
21/07/2022,02:26:41,0.001,0.0,0.0,0.0
21/07/2022,02:27:49,0.002,0.0,0.0,0.0
21/07/2022,02:28:40,0.001,0.0,0.0,0.0
21/07/2022,02:29:40,0.001,0.0,0.0,0.0
21/07/2022,02:30:49,0.002,0.0,0.0,0.0
21/07/2022,02:31:40,0.001,0.0,0.0,0.0
21/07/2022,02:32:41,0.001,0.0,0.0,0.0
21/07/2022,02:33:40,0.001,0.0,0.0,0.0
21/07/2022,02:34:40,0.000,0.0,0.0,0.0
21/07/2022,02:35:41,0.001,0.0,0.0,0.0
21/07/2022,02:36:40,0.002,0.0,0.0,0.0
21/07/2022,02:37:41,0.002,0.0,0.0,0.0
21/07/2022,02:38:41,0.001,0.0,0.0,0.0
21/07/2022,02:39:40,0.001,0.0,0.0,0.0
21/07/2022,02:40:41,0.001,0.0,0.0,0.0
21/07/2022,02:41:40,0.002,0.0,0.0,0.0
21/07/2022,02:42:41,0.001,0.0,0.0,0.0
21/07/2022,02:43:41,0.001,0.0,0.0,0.0
21/07/2022,02:44:41,0.002,0.0,0.0,0.0
21/07/2022,02:45:41,0.001,0.0,0.0,0.0
21/07/2022,02:46:40,0.001,0.0,0.0,0.0
21/07/2022,02:47:40,0.001,0.0,0.0,0.0
21/07/2022,02:48:41,0.002,0.0,0.0,0.0
21/07/2022,02:49:41,0.000,0.0,0.0,0.0
21/07/2022,02:50:41,0.001,0.0,0.0,0.0
21/07/2022,02:51:41,0.001,0.0,0.0,0.0
21/07/2022,02:52:41,0.001,0.0,0.0,0.0
21/07/2022,02:53:49,0.001,0.0,0.0,0.0
21/07/2022,02:54:40,0.001,0.0,0.0,0.0
21/07/2022,02:55:41,0.001,0.0,0.0,0.0
21/07/2022,02:56:49,0.002,0.0,0.0,0.0
21/07/2022,02:57:40,0.002,0.0,0.0,0.0
21/07/2022,02:58:40,0.000,0.0,0.0,0.0
21/07/2022,02:59:41,0.001,0.0,0.0,0.0
21/07/2022,03:00:43,0.002,0.0,0.0,0.0
21/07/2022,03:01:40,0.001,0.0,0.0,0.0
21/07/2022,03:02:41,0.001,0.0,0.0,0.0
21/07/2022,03:03:41,0.001,0.0,0.0,0.0
21/07/2022,03:04:40,0.001,0.0,0.0,0.0
21/07/2022,03:05:41,0.001,0.0,0.0,0.0
21/07/2022,03:06:41,0.001,0.0,0.0,0.0
21/07/2022,03:07:41,0.001,0.0,0.0,0.0
21/07/2022,03:08:41,0.001,0.0,0.0,0.0
21/07/2022,03:09:40,0.001,0.0,0.0,0.0
21/07/2022,03:10:41,0.001,0.0,0.0,0.0
21/07/2022,03:11:41,0.001,0.0,0.0,0.0
21/07/2022,03:12:41,0.001,0.0,0.0,0.0
21/07/2022,03:13:41,0.001,0.0,0.0,0.0
21/07/2022,03:14:41,0.001,0.0,0.0,0.0
21/07/2022,03:15:42,0.001,0.0,0.0,0.0
21/07/2022,03:16:41,0.001,0.0,0.0,0.0
21/07/2022,03:17:41,0.001,0.0,0.0,0.0
21/07/2022,03:18:41,0.001,0.0,0.0,0.0
21/07/2022,03:19:41,0.002,0.0,0.0,0.0
21/07/2022,03:20:41,0.001,0.0,0.0,0.0
21/07/2022,03:21:41,0.002,0.0,0.0,0.0
21/07/2022,03:22:50,0.002,0.0,0.0,0.0
21/07/2022,03:23:39,0.001,0.0,0.0,0.0
21/07/2022,03:24:41,0.001,0.0,0.0,0.0
21/07/2022,03:25:41,0.001,0.0,0.0,0.0
21/07/2022,03:26:32,0.001,0.0,0.0,0.0
21/07/2022,03:27:41,0.001,0.0,0.0,0.0
21/07/2022,03:28:41,0.001,0.0,0.0,0.0
21/07/2022,03:29:40,0.001,0.0,0.0,0.0
21/07/2022,03:30:48,0.001,0.0,0.0,0.0
21/07/2022,03:31:58,0.001,0.0,0.0,0.0
21/07/2022,03:33:42,0.001,0.0,0.0,0.0
21/07/2022,03:34:41,0.001,0.0,0.0,0.0
21/07/2022,03:35:41,0.001,0.0,0.0,0.0
21/07/2022,03:36:41,0.002,0.0,0.0,0.0
21/07/2022,03:37:41,0.002,0.0,0.0,0.0
21/07/2022,03:38:41,0.001,0.0,0.0,0.0
21/07/2022,03:39:41,0.001,0.0,0.0,0.0
21/07/2022,03:40:41,0.001,0.0,0.0,0.0
21/07/2022,03:41:41,0.001,0.0,0.0,0.0
21/07/2022,03:42:41,0.001,0.0,0.0,0.0
21/07/2022,03:43:41,0.001,0.0,0.0,0.0
21/07/2022,03:44:41,0.001,0.0,0.0,0.0
21/07/2022,03:45:41,0.001,0.0,0.0,0.0
21/07/2022,03:46:41,0.001,0.0,0.0,0.0
21/07/2022,03:47:41,0.002,0.0,0.0,0.0
21/07/2022,03:48:49,0.002,0.0,0.0,0.0
21/07/2022,03:49:41,0.002,0.0,0.0,0.0
21/07/2022,03:50:41,0.001,0.0,0.0,0.0
21/07/2022,03:51:50,0.001,0.0,0.0,0.0
21/07/2022,03:52:41,0.001,0.0,0.0,0.0
21/07/2022,03:53:41,0.002,0.0,0.0,0.0
21/07/2022,03:54:41,0.001,0.0,0.0,0.0
21/07/2022,03:55:41,0.001,0.0,0.0,0.0
21/07/2022,03:56:49,0.002,0.0,0.0,0.0
21/07/2022,03:57:41,0.002,0.0,0.0,0.0
21/07/2022,03:58:41,0.001,0.0,0.0,0.0
21/07/2022,03:59:41,0.002,0.0,0.0,0.0
21/07/2022,04:00:41,0.001,0.0,0.0,0.0
21/07/2022,04:01:41,0.002,0.0,0.0,0.0
21/07/2022,04:02:41,0.002,0.0,0.0,0.0
21/07/2022,04:03:41,0.001,0.0,0.0,0.0
21/07/2022,04:04:41,0.003,0.0,0.0,0.0
21/07/2022,04:05:41,0.002,0.0,0.0,0.0
21/07/2022,04:06:41,0.002,0.0,0.0,0.0
21/07/2022,04:07:41,0.001,0.0,0.0,0.0
21/07/2022,04:08:41,0.002,0.0,0.0,0.0
21/07/2022,04:09:41,0.002,0.0,0.0,0.0
21/07/2022,04:10:41,0.003,0.0,0.0,0.0
21/07/2022,04:11:41,0.003,0.0,0.0,0.0
21/07/2022,04:12:41,0.002,0.0,0.0,0.0
21/07/2022,04:13:41,0.002,0.0,0.0,0.0
21/07/2022,04:14:49,0.003,0.0,0.0,0.0
21/07/2022,04:15:41,0.002,0.0,0.0,0.0
21/07/2022,04:16:41,0.002,0.0,0.0,0.0
21/07/2022,04:17:49,0.002,0.0,0.0,0.0
21/07/2022,04:18:41,0.003,0.0,0.0,0.0
21/07/2022,04:19:41,0.002,0.0,0.0,0.0
21/07/2022,04:20:41,0.003,0.0,0.0,0.0
21/07/2022,04:21:41,0.003,0.0,0.0,0.0
21/07/2022,04:22:49,0.003,0.0,0.0,0.0
21/07/2022,04:23:41,0.003,0.0,0.0,0.0
21/07/2022,04:24:42,0.004,0.0,0.0,0.0
21/07/2022,04:25:41,0.005,0.0,0.0,0.0
21/07/2022,04:26:41,0.004,0.0,0.0,0.0
21/07/2022,04:27:41,0.004,0.0,0.0,0.0
21/07/2022,04:28:41,0.005,0.0,0.0,0.0
21/07/2022,04:29:41,0.005,0.0,0.0,0.0
21/07/2022,04:30:41,0.006,0.0,0.0,0.0
21/07/2022,04:31:41,0.005,0.0,0.0,0.0
21/07/2022,04:32:41,0.006,0.0,0.0,0.0
21/07/2022,04:33:41,0.006,0.0,0.0,0.0
21/07/2022,04:34:41,0.006,0.0,0.0,0.0
21/07/2022,04:35:41,0.006,0.0,0.0,0.0
21/07/2022,04:36:41,0.007,0.0,0.0,0.0
21/07/2022,04:37:42,0.007,0.0,0.0,0.0
21/07/2022,04:38:41,0.006,0.0,0.0,0.0
21/07/2022,04:39:41,0.007,0.0,0.001,0.001
21/07/2022,04:40:41,0.008,0.0,0.001,0.0
21/07/2022,04:41:41,0.008,0.0,0.001,0.0
21/07/2022,04:42:41,0.009,0.0,0.001,0.0
21/07/2022,04:43:41,0.009,0.0,0.001,0.0
21/07/2022,04:44:41,0.009,0.0,0.001,0.0
21/07/2022,04:45:41,0.009,0.0,0.001,0.0
21/07/2022,04:46:57,0.010,0.0,0.002,0.001
21/07/2022,04:48:42,0.011,0.0,0.002,0.0
21/07/2022,04:49:50,0.011,0.0,0.002,0.0
21/07/2022,04:50:41,0.012,0.0,0.002,0.0
21/07/2022,04:51:41,0.012,0.0,0.002,0.0
21/07/2022,04:52:41,0.012,0.0,0.003,0.001
21/07/2022,04:53:41,0.012,0.0,0.003,0.0
21/07/2022,04:54:41,0.013,0.0,0.003,0.0
21/07/2022,04:55:41,0.013,0.0,0.003,0.0
21/07/2022,04:56:41,0.014,0.0,0.003,0.0
21/07/2022,04:57:41,0.014,0.0,0.004,0.001
21/07/2022,04:58:41,0.015,0.0,0.004,0.0
21/07/2022,04:59:41,0.016,0.0,0.004,0.0
21/07/2022,05:00:41,0.015,0.0,0.004,0.0
21/07/2022,05:01:41,0.016,0.0,0.005,0.001
21/07/2022,05:02:41,0.016,0.0,0.005,0.0
21/07/2022,05:03:41,0.017,0.0,0.005,0.0
21/07/2022,05:04:41,0.017,0.0,0.006,0.001
21/07/2022,05:05:41,0.018,0.0,0.006,0.0
21/07/2022,05:06:41,0.017,0.0,0.006,0.0
21/07/2022,05:07:41,0.018,0.0,0.006,0.0
21/07/2022,05:08:41,0.019,0.0,0.007,0.001
21/07/2022,05:09:41,0.019,0.0,0.007,0.0
21/07/2022,05:10:41,0.019,0.0,0.007,0.0
21/07/2022,05:11:43,0.020,0.0,0.008,0.001
21/07/2022,05:12:50,0.021,0.0,0.008,0.0
21/07/2022,05:13:41,0.021,0.0,0.008,0.0
21/07/2022,05:14:41,0.021,0.0,0.009,0.001
21/07/2022,05:15:50,0.022,0.0,0.009,0.0
21/07/2022,05:16:41,0.022,0.0,0.009,0.0
21/07/2022,05:17:41,0.022,0.0,0.01,0.001
21/07/2022,05:18:41,0.022,0.0,0.01,0.0
21/07/2022,05:19:41,0.022,0.0,0.011,0.001
21/07/2022,05:20:41,0.023,0.0,0.011,0.0
21/07/2022,05:21:41,0.024,0.0,0.011,0.0
21/07/2022,05:22:42,0.023,0.0,0.012,0.001
21/07/2022,05:23:41,0.024,0.0,0.012,0.0
21/07/2022,05:24:41,0.026,0.0,0.013,0.001
21/07/2022,05:25:41,0.026,0.0,0.013,0.0
21/07/2022,05:26:41,0.028,0.0,0.013,0.0
21/07/2022,05:27:41,0.029,0.0,0.014,0.001
21/07/2022,05:28:41,0.029,0.0,0.014,0.0
21/07/2022,05:29:41,0.029,0.0,0.015,0.001
21/07/2022,05:30:41,0.028,0.0,0.015,0.0
21/07/2022,05:31:41,0.028,0.0,0.016,0.001
21/07/2022,05:32:41,0.030,0.0,0.016,0.0
21/07/2022,05:33:41,0.033,0.0,0.017,0.001
21/07/2022,05:34:41,0.033,0.0,0.017,0.0
21/07/2022,05:35:49,0.035,0.0,0.018,0.001
21/07/2022,05:36:40,0.037,0.0,0.018,0.0
21/07/2022,05:37:41,0.038,0.0,0.019,0.001
21/07/2022,05:38:49,0.040,0.0,0.02,0.001
21/07/2022,05:39:41,0.042,0.0,0.02,0.0
21/07/2022,05:40:41,0.043,0.0,0.021,0.001
21/07/2022,05:41:32,0.044,0.0,0.022,0.001
21/07/2022,05:42:42,0.046,0.0,0.023,0.001
21/07/2022,05:43:41,0.048,0.0,0.023,0.0
21/07/2022,05:44:41,0.049,0.0,0.024,0.001
21/07/2022,05:45:41,0.051,0.0,0.025,0.001
21/07/2022,05:46:41,0.051,0.0,0.026,0.001
21/07/2022,05:47:41,0.053,0.0,0.027,0.001
21/07/2022,05:48:41,0.055,0.0,0.028,0.001
21/07/2022,05:49:42,0.057,0.0,0.029,0.001
21/07/2022,05:50:41,0.057,0.0,0.03,0.001
21/07/2022,05:51:41,0.059,0.0,0.031,0.001
21/07/2022,05:52:41,0.059,0.0,0.032,0.001
21/07/2022,05:53:41,0.061,0.0,0.033,0.001
21/07/2022,05:54:41,0.062,0.0,0.034,0.001
21/07/2022,05:55:41,0.063,0.0,0.035,0.001
21/07/2022,05:56:49,0.066,0.0,0.036,0.001
21/07/2022,05:57:41,0.068,0.0,0.037,0.001
21/07/2022,05:58:41,0.068,0.0,0.038,0.001
21/07/2022,05:59:41,0.070,0.0,0.039,0.001
21/07/2022,06:00:41,0.072,0.0,0.04,0.001
21/07/2022,06:01:50,0.076,0.0,0.042,0.002
21/07/2022,06:02:41,0.077,0.0,0.043,0.001
21/07/2022,06:03:41,0.079,0.0,0.044,0.001
21/07/2022,06:04:42,0.081,0.0,0.045,0.001
21/07/2022,06:05:42,0.082,0.0,0.047,0.002
21/07/2022,06:06:41,0.084,0.0,0.048,0.001
21/07/2022,06:07:41,0.085,0.0,0.05,0.002
21/07/2022,06:08:41,0.087,0.0,0.051,0.001
21/07/2022,06:09:41,0.088,0.0,0.052,0.001
21/07/2022,06:10:43,0.089,0.0,0.054,0.002
21/07/2022,06:11:41,0.093,0.0,0.055,0.001
21/07/2022,06:12:41,0.093,0.0,0.057,0.002
21/07/2022,06:13:41,0.095,0.0,0.058,0.001
21/07/2022,06:14:41,0.096,0.0,0.06,0.002
21/07/2022,06:15:42,0.098,0.0,0.062,0.002
21/07/2022,06:16:41,0.098,0.0,0.063,0.001
21/07/2022,06:17:41,0.098,0.0,0.065,0.002
21/07/2022,06:18:41,0.099,0.0,0.067,0.002
21/07/2022,06:19:50,0.097,0.0,0.069,0.002
21/07/2022,06:20:41,0.100,0.0,0.07,0.001
21/07/2022,06:21:41,0.099,0.0,0.072,0.002
21/07/2022,06:22:50,0.101,0.0,0.074,0.002
21/07/2022,06:23:41,0.103,0.0,0.075,0.001
21/07/2022,06:24:41,0.104,0.0,0.077,0.002
21/07/2022,06:25:41,0.106,0.0,0.078,0.001
21/07/2022,06:26:41,0.107,0.0,0.08,0.002
21/07/2022,06:27:42,0.108,0.0,0.082,0.002
21/07/2022,06:28:41,0.110,0.0,0.084,0.002
21/07/2022,06:29:41,0.113,0.0,0.086,0.002
21/07/2022,06:30:41,0.114,0.0,0.088,0.002
21/07/2022,06:31:41,0.115,0.0,0.089,0.001
21/07/2022,06:32:41,0.116,0.0,0.091,0.002
21/07/2022,06:33:41,0.117,0.0,0.093,0.002
21/07/2022,06:34:42,0.118,0.0,0.095,0.002
21/07/2022,06:35:41,0.116,0.0,0.097,0.002
21/07/2022,06:36:41,0.117,0.0,0.099,0.002
21/07/2022,06:37:42,0.116,0.0,0.101,0.002
21/07/2022,06:38:41,0.115,0.0,0.103,0.002
21/07/2022,06:39:41,0.115,0.0,0.105,0.002
21/07/2022,06:40:41,0.118,0.0,0.107,0.002
21/07/2022,06:41:41,0.121,0.0,0.109,0.002
21/07/2022,06:42:41,0.123,0.0,0.111,0.002
21/07/2022,06:43:41,0.127,0.0,0.113,0.002
21/07/2022,06:44:41,0.129,0.0,0.115,0.002
21/07/2022,06:45:42,0.131,0.0,0.117,0.002
21/07/2022,06:46:41,0.133,0.0,0.12,0.003
21/07/2022,06:47:42,0.135,0.0,0.122,0.002
21/07/2022,06:48:50,0.137,0.0,0.124,0.002
21/07/2022,06:49:41,0.140,0.0,0.126,0.002
21/07/2022,06:50:41,0.143,0.0,0.129,0.003
21/07/2022,06:51:49,0.148,0.0,0.131,0.002
21/07/2022,06:52:43,0.152,0.0,0.134,0.003
21/07/2022,06:53:41,0.156,0.0,0.136,0.002
21/07/2022,06:54:41,0.162,0.0,0.139,0.003
21/07/2022,06:55:41,0.166,0.0,0.142,0.003
21/07/2022,06:56:41,0.170,0.0,0.144,0.002
21/07/2022,06:57:42,0.174,0.0,0.147,0.003
21/07/2022,06:58:41,0.176,0.0,0.15,0.003
21/07/2022,06:59:41,0.179,0.0,0.153,0.003
21/07/2022,07:00:41,0.180,0.0,0.156,0.003
21/07/2022,07:01:41,0.182,0.0,0.159,0.003
21/07/2022,07:02:42,0.182,0.0,0.162,0.003
21/07/2022,07:03:41,0.184,0.0,0.165,0.003
21/07/2022,07:04:41,0.186,0.0,0.168,0.003
21/07/2022,07:05:49,0.191,0.0,0.172,0.004
21/07/2022,07:06:42,0.197,0.0,0.175,0.003
21/07/2022,07:07:41,0.201,0.0,0.178,0.003
21/07/2022,07:08:41,0.208,0.0,0.181,0.003
21/07/2022,07:09:41,0.213,0.0,0.185,0.004
21/07/2022,07:10:41,0.216,0.0,0.189,0.004
21/07/2022,07:11:33,0.221,1.0,0.192,0.003
21/07/2022,07:12:42,0.223,1.0,0.196,0.004
21/07/2022,07:13:42,0.226,1.0,0.2,0.004
21/07/2022,07:14:41,0.228,1.0,0.203,0.003
21/07/2022,07:15:41,0.231,1.0,0.207,0.004
21/07/2022,07:16:41,0.233,1.0,0.211,0.004
21/07/2022,07:17:41,0.233,1.0,0.215,0.004
21/07/2022,07:18:41,0.236,1.0,0.219,0.004
21/07/2022,07:19:42,0.241,1.0,0.223,0.004
21/07/2022,07:20:49,0.248,1.0,0.227,0.004
21/07/2022,07:21:41,0.253,1.0,0.231,0.004
21/07/2022,07:22:41,0.258,1.0,0.235,0.004
21/07/2022,07:23:50,0.262,1.0,0.24,0.005
21/07/2022,07:24:41,0.263,1.0,0.244,0.004
21/07/2022,07:25:41,0.262,1.0,0.248,0.004
21/07/2022,07:26:41,0.260,1.0,0.253,0.005
21/07/2022,07:27:41,0.257,1.0,0.257,0.004
21/07/2022,07:28:41,0.253,1.0,0.261,0.004
21/07/2022,07:29:41,0.253,1.0,0.266,0.005
21/07/2022,07:30:41,0.250,1.0,0.27,0.004
21/07/2022,07:31:41,0.248,1.0,0.274,0.004
21/07/2022,07:32:41,0.247,1.0,0.278,0.004
21/07/2022,07:33:41,0.246,1.0,0.282,0.004
21/07/2022,07:34:49,0.245,1.0,0.287,0.005
21/07/2022,07:35:41,0.245,1.0,0.29,0.003
21/07/2022,07:36:41,0.246,1.0,0.294,0.004
21/07/2022,07:37:41,0.247,1.0,0.298,0.004
21/07/2022,07:38:43,0.251,1.0,0.303,0.005
21/07/2022,07:39:41,0.254,1.0,0.307,0.004
21/07/2022,07:40:41,0.262,1.0,0.311,0.004
21/07/2022,07:41:41,0.269,1.0,0.315,0.004
21/07/2022,07:42:42,0.276,1.0,0.32,0.005
21/07/2022,07:43:41,0.281,1.0,0.325,0.005
21/07/2022,07:44:41,0.285,1.0,0.33,0.005
21/07/2022,07:45:41,0.288,1.0,0.334,0.004
21/07/2022,07:46:42,0.292,1.0,0.339,0.005
21/07/2022,07:47:41,0.297,1.0,0.344,0.005
21/07/2022,07:48:42,0.303,1.0,0.349,0.005
21/07/2022,07:49:41,0.309,1.0,0.354,0.005
21/07/2022,07:50:42,0.317,1.0,0.359,0.005
21/07/2022,07:51:41,0.324,1.0,0.365,0.006
21/07/2022,07:52:41,0.331,1.0,0.37,0.005
21/07/2022,07:53:42,0.340,1.0,0.376,0.006
21/07/2022,07:54:42,0.347,1.0,0.382,0.006
21/07/2022,07:55:41,0.355,1.0,0.387,0.005
21/07/2022,07:56:41,0.361,1.0,0.393,0.006
21/07/2022,07:57:41,0.368,1.0,0.399,0.006
21/07/2022,07:58:50,0.377,1.0,0.406,0.007
21/07/2022,07:59:41,0.382,1.0,0.412,0.006
21/07/2022,08:00:42,0.393,1.0,0.418,0.006
21/07/2022,08:01:42,0.409,1.0,0.425,0.007
21/07/2022,08:02:41,0.406,1.0,0.432,0.007
21/07/2022,08:03:42,0.410,1.0,0.439,0.007
21/07/2022,08:04:41,0.420,1.0,0.446,0.007
21/07/2022,08:05:41,0.426,1.0,0.453,0.007
21/07/2022,08:06:49,0.434,1.0,0.461,0.008
21/07/2022,08:07:42,0.440,1.0,0.467,0.006
21/07/2022,08:08:41,0.445,1.0,0.474,0.007
21/07/2022,08:09:50,0.448,1.0,0.483,0.009
21/07/2022,08:10:42,0.453,1.0,0.489,0.006
21/07/2022,08:11:41,0.460,1.0,0.497,0.008
21/07/2022,08:12:42,0.468,1.0,0.505,0.008
21/07/2022,08:13:42,0.477,1.0,0.513,0.008
21/07/2022,08:14:42,0.490,1.0,0.521,0.008
21/07/2022,08:15:41,0.501,1.0,0.529,0.008
21/07/2022,08:16:41,0.510,1.0,0.537,0.008
21/07/2022,08:17:41,0.523,1.0,0.546,0.009
21/07/2022,08:18:41,0.535,1.0,0.555,0.009
21/07/2022,08:19:41,0.545,1.0,0.564,0.009
21/07/2022,08:20:41,0.552,1.0,0.573,0.009
21/07/2022,08:21:41,0.559,1.0,0.582,0.009
21/07/2022,08:22:41,0.468,1.0,0.591,0.009
21/07/2022,08:23:41,0.570,1.0,0.6,0.009
21/07/2022,08:24:41,0.578,1.0,0.61,0.01
21/07/2022,08:25:42,0.589,1.0,0.62,0.01
21/07/2022,08:27:07,0.614,1.0,0.634,0.014
21/07/2022,08:28:42,0.665,2.0,0.651,0.017
21/07/2022,08:29:41,0.735,2.0,0.663,0.012
21/07/2022,08:30:42,0.714,2.0,0.675,0.012
21/07/2022,08:31:41,0.676,2.0,0.687,0.012
21/07/2022,08:32:33,0.673,2.0,0.696,0.009
21/07/2022,08:33:42,0.687,2.0,0.709,0.013
21/07/2022,08:34:42,0.704,2.0,0.721,0.012
21/07/2022,08:35:42,0.715,2.0,0.733,0.012
21/07/2022,08:36:41,0.733,2.0,0.745,0.012
21/07/2022,08:37:41,0.823,2.0,0.758,0.013
21/07/2022,08:38:50,0.883,2.0,0.774,0.016
21/07/2022,08:39:42,0.878,2.0,0.787,0.013
21/07/2022,08:40:42,0.783,2.0,0.801,0.014
21/07/2022,08:41:49,0.782,2.0,0.816,0.015
21/07/2022,08:42:41,0.764,2.0,0.826,0.01
21/07/2022,08:43:41,0.767,2.0,0.84,0.014
21/07/2022,08:44:42,0.772,2.0,0.852,0.012
21/07/2022,08:45:41,0.781,2.0,0.865,0.013
21/07/2022,08:46:50,0.754,2.0,0.88,0.015
21/07/2022,08:47:41,0.748,2.0,0.89,0.01
21/07/2022,08:48:41,0.764,2.0,0.903,0.013
21/07/2022,08:49:42,0.766,2.0,0.916,0.013
21/07/2022,08:50:42,0.783,2.0,0.929,0.013
21/07/2022,08:51:41,0.804,2.0,0.942,0.013
21/07/2022,08:52:42,0.804,2.0,0.955,0.013
21/07/2022,08:53:41,0.813,2.0,0.969,0.014
21/07/2022,08:54:51,0.813,2.0,0.984,0.015
21/07/2022,08:55:41,0.813,2.0,0.996,0.012
21/07/2022,08:56:42,0.815,2.0,1.01,0.014
21/07/2022,08:57:41,0.816,2.0,1.023,0.013
21/07/2022,08:58:42,0.812,2.0,1.037,0.014
21/07/2022,08:59:41,0.811,2.0,1.05,0.013
21/07/2022,09:00:41,0.806,2.0,1.063,0.013
21/07/2022,09:01:42,0.807,2.0,1.077,0.014
21/07/2022,09:02:41,0.821,2.0,1.091,0.014
21/07/2022,09:03:42,0.881,2.0,1.105,0.014
21/07/2022,09:04:41,0.923,2.0,1.12,0.015
21/07/2022,09:05:41,0.945,2.0,1.136,0.016
21/07/2022,09:06:41,0.929,2.0,1.151,0.015
21/07/2022,09:07:41,0.940,2.0,1.167,0.016
21/07/2022,09:08:42,0.951,2.0,1.183,0.016
21/07/2022,09:09:41,0.959,2.0,1.198,0.015
21/07/2022,09:10:41,1.001,2.0,1.215,0.017
21/07/2022,09:11:42,1.000,2.0,1.232,0.017
21/07/2022,09:12:41,0.984,2.0,1.248,0.016
21/07/2022,09:13:42,0.929,2.0,1.264,0.016
21/07/2022,09:14:41,0.928,2.0,1.279,0.015
21/07/2022,09:16:13,1.086,2.0,1.304,0.025
21/07/2022,09:17:42,0.931,2.0,1.329,0.025
21/07/2022,09:18:41,1.065,2.0,1.345,0.016
21/07/2022,09:19:41,1.178,3.0,1.364,0.019
21/07/2022,09:20:50,1.127,3.0,1.386,0.022
21/07/2022,09:21:42,1.174,3.0,1.402,0.016
21/07/2022,09:22:41,1.196,3.0,1.421,0.019
21/07/2022,09:23:50,1.251,3.0,1.445,0.024
21/07/2022,09:24:41,1.229,3.0,1.464,0.019
21/07/2022,09:25:41,1.330,3.0,1.485,0.021
21/07/2022,09:26:41,1.272,3.0,1.504,0.019
21/07/2022,09:27:42,1.369,3.0,1.527,0.023
21/07/2022,09:28:41,1.362,3.0,1.55,0.023
21/07/2022,09:29:41,1.378,3.0,1.573,0.023
21/07/2022,09:30:42,1.358,3.0,1.595,0.022
21/07/2022,09:31:42,1.366,3.0,1.618,0.023
21/07/2022,09:32:42,1.379,3.0,1.641,0.023
21/07/2022,09:33:41,1.378,3.0,1.664,0.023
21/07/2022,09:34:41,1.331,3.0,1.687,0.023
21/07/2022,09:35:42,1.333,3.0,1.711,0.024
21/07/2022,09:36:41,1.465,3.0,1.734,0.023
21/07/2022,09:37:42,1.476,3.0,1.758,0.024
21/07/2022,09:38:42,1.458,3.0,1.783,0.025
21/07/2022,09:39:42,1.211,3.0,1.806,0.023
21/07/2022,09:40:41,1.122,3.0,1.825,0.019
21/07/2022,09:41:42,1.177,3.0,1.844,0.019
21/07/2022,09:42:41,1.200,3.0,1.864,0.02
21/07/2022,09:43:41,1.323,3.0,1.884,0.02
21/07/2022,09:44:41,1.296,3.0,1.906,0.022
21/07/2022,09:45:41,1.150,3.0,1.927,0.021
21/07/2022,09:46:43,1.064,2.0,1.946,0.019
21/07/2022,09:47:42,1.034,2.0,1.963,0.017
21/07/2022,09:48:41,1.022,2.0,1.98,0.017
21/07/2022,09:49:51,1.030,2.0,1.999,0.019
21/07/2022,09:50:40,1.057,2.0,2.014,0.015
21/07/2022,09:51:42,1.101,3.0,2.033,0.019
21/07/2022,09:52:41,1.102,3.0,2.051,0.018
21/07/2022,09:54:42,1.085,2.0,2.088,0.037
21/07/2022,09:55:42,1.118,3.0,2.106,0.018
21/07/2022,09:56:42,1.092,3.0,2.125,0.019
21/07/2022,09:57:50,1.088,3.0,2.145,0.02
21/07/2022,09:58:41,1.101,3.0,2.161,0.016
21/07/2022,09:59:41,1.128,3.0,2.18,0.019
21/07/2022,10:00:52,1.172,3.0,2.202,0.022
21/07/2022,10:01:41,1.189,3.0,2.218,0.016
21/07/2022,10:02:41,1.211,3.0,2.238,0.02
21/07/2022,10:03:42,1.210,3.0,2.259,0.021
21/07/2022,10:04:42,1.255,3.0,2.279,0.02
21/07/2022,10:05:42,1.400,3.0,2.301,0.022
21/07/2022,10:06:41,1.523,4.0,2.324,0.023
21/07/2022,10:07:42,1.564,4.0,2.35,0.026
21/07/2022,10:08:41,1.342,3.0,2.375,0.025
21/07/2022,10:09:42,1.132,3.0,2.395,0.02
21/07/2022,10:10:41,1.393,3.0,2.416,0.021
21/07/2022,10:11:42,1.090,3.0,2.435,0.019
21/07/2022,10:12:41,1.077,2.0,2.453,0.018
21/07/2022,10:13:42,1.064,2.0,2.47,0.017